Fort Polk, LA

12:28 AM CDT on July 25, 2017 (GMT -0500)
Fort Polk

Weather History for KDNK - April, 2012

Change the Weather History Date:

Tuesday, April 3, 2012

  Actual Average (KPOE) Record (KPOE)
Temperature  
Mean Temperature 74 °F -  
Max Temperature 81 °F 72 °F 84 °F (2007)
Min Temperature 66 °F 54 °F 39 °F (2016)
Cooling Degree Days 8    
Growing Degree Days 24 (Base 50)    
Moisture  
Dew Point 66 °F    
Average Humidity 80    
Maximum Humidity 88    
Minimum Humidity 62    
Precipitation  
Precipitation 0.00 in - - ()
Sea Level Pressure  
Sea Level Pressure 29.84 in    
Wind  
Wind Speed 7 mph (SE)    
Max Wind Speed 14 mph    
Max Gust Speed 20 mph    
Visibility 10 miles    
Events Rain    
Averages and records for this station are not official NWS values.
T = Trace of Precipitation, MM = Missing Value Source: NWS Daily Summary

Daily Weather History Graph

Daily Weather History Graph

Search for Another Location

Airport or City:

Trip Planner

Search our weather history database for the weather conditions in past years. The results will help you decide how hot, cold, wet, or windy it might be!

Date:

Astronomy

Apr. 03, 2012 Rise Set
Actual Time 6:57 AM CDT 7:32 PM CDT
Civil Twilight 6:33 AM CDT 7:57 PM CDT
Nautical Twilight 6:04 AM CDT 8:26 PM CDT
Astronomical Twilight 5:35 AM CDT 8:55 PM CDT
Moon 4:28 PM CDT (4/3) 4:33 AM CDT (4/3)
Length of Visible Light 13h 24m
Length of Day
12h 35m
Waxing Gibbous, 87% of the Moon is Illuminated
Apr 3
Waxing Gibbous
Apr 6
Full
Apr 13
Last Quarter
Apr 21
New
Apr 29
First Quarter

Hourly Weather History & Observations

Time (CDT) Temp. Heat Index Dew Point Humidity Pressure Visibility Wind Dir Wind Speed Gust Speed Precip Events Conditions
12:53 AM 66.9 °F - 62.1 °F 84% 29.81 in 10.0 mi ESE 6.9 mph - N/A   Overcast
1:36 AM 66.2 °F - 62.6 °F 88% 29.82 in 10.0 mi SE 8.1 mph - N/A   Overcast
1:53 AM 66.9 °F - 62.1 °F 84% 29.82 in 10.0 mi SE 6.9 mph - N/A   Overcast
2:53 AM 66.9 °F - 62.1 °F 84% 29.81 in 10.0 mi SE 5.8 mph - N/A   Overcast
3:10 AM 66.2 °F - 62.6 °F 88% 29.81 in 10.0 mi SE 9.2 mph - N/A   Overcast
3:53 AM 66.0 °F - 62.1 °F 87% 29.81 in 10.0 mi SE 8.1 mph 18.4 mph N/A   Overcast
4:01 AM 66.2 °F - 62.6 °F 88% 29.82 in 10.0 mi SE 8.1 mph - N/A   Overcast
4:18 AM 66.2 °F - 62.6 °F 88% 29.81 in 10.0 mi SE 5.8 mph - N/A   Overcast
4:35 AM 66.2 °F - 62.6 °F 88% 29.81 in 10.0 mi SE 6.9 mph - N/A   Overcast
4:53 AM 66.9 °F - 63.0 °F 87% 29.81 in 10.0 mi SSE 9.2 mph 18.4 mph N/A   Mostly Cloudy
5:53 AM 66.9 °F - 62.1 °F 84% 29.80 in 10.0 mi SSE 10.4 mph - N/A   Clear
6:53 AM 66.0 °F - 62.1 °F 87% 29.82 in 10.0 mi SE 8.1 mph - N/A   Partly Cloudy
7:10 AM 66.2 °F - 62.6 °F 88% 29.82 in 10.0 mi ESE 6.9 mph - N/A   Mostly Cloudy
7:53 AM 66.9 °F - 63.0 °F 87% 29.84 in 10.0 mi SE 6.9 mph - N/A   Overcast
8:53 AM 70.0 °F - 64.0 °F 81% 29.86 in 10.0 mi SSE 6.9 mph - N/A   Overcast
9:45 AM 73.4 °F - 64.4 °F 73% 29.89 in 10.0 mi SSE 8.1 mph 19.6 mph N/A   Mostly Cloudy
9:53 AM 75.0 °F - 64.9 °F 71% 29.88 in 10.0 mi SSE 4.6 mph - N/A   Mostly Cloudy
10:26 AM 75.2 °F - 66.2 °F 73% 29.92 in 10.0 mi Variable 6.9 mph - N/A   Mostly Cloudy
10:53 AM 75.9 °F - 66.0 °F 71% 29.93 in 10.0 mi South 6.9 mph - N/A   Overcast
11:53 AM 77.0 °F - 66.9 °F 71% 29.91 in 10.0 mi SE 9.2 mph - N/A   Mostly Cloudy
12:53 PM 78.1 °F - 68.0 °F 71% 29.90 in 10.0 mi SSE 9.2 mph 19.6 mph N/A   Partly Cloudy
1:53 PM 80.1 °F 82.7 °F 68.0 °F 67% 29.87 in 10.0 mi SSE 11.5 mph 18.4 mph N/A   Mostly Cloudy
2:53 PM 81.0 °F 83.8 °F 68.0 °F 65% 29.86 in 10.0 mi SSE 10.4 mph - N/A   Mostly Cloudy
3:53 PM 81.0 °F 83.8 °F 68.0 °F 65% 29.82 in 10.0 mi South 13.8 mph 18.4 mph 0.00 in   Mostly Cloudy
4:53 PM 81.0 °F 83.3 °F 66.9 °F 62% 29.79 in 10.0 mi SSE 13.8 mph 19.6 mph N/A   Mostly Cloudy
5:53 PM 79.0 °F - 68.0 °F 69% 29.79 in 10.0 mi SE 10.4 mph - N/A   Clear
6:53 PM 78.1 °F - 68.0 °F 71% 29.81 in 10.0 mi SE 6.9 mph - N/A   Mostly Cloudy
7:53 PM 75.9 °F - 68.0 °F 76% 29.81 in 10.0 mi ESE 6.9 mph - N/A   Partly Cloudy
8:53 PM 75.0 °F - 68.0 °F 79% 29.83 in 10.0 mi ESE 4.6 mph - N/A   Scattered Clouds
9:01 PM 75.2 °F - 68.0 °F 78% 29.84 in 10.0 mi ESE 5.8 mph - N/A   Mostly Cloudy
9:53 PM 75.0 °F - 69.1 °F 82% 29.86 in 10.0 mi ESE 5.8 mph - N/A   Overcast
10:23 PM 73.4 °F - 69.8 °F 88% 29.89 in 10.0 mi SE 4.6 mph - N/A   Overcast
10:53 PM 73.9 °F - 69.1 °F 85% 29.88 in 10.0 mi SE 3.5 mph - N/A   Overcast
11:04 PM 73.4 °F - 69.8 °F 88% 29.87 in 10.0 mi ESE 3.5 mph - 0.00 in Rain Light Rain
11:33 PM 73.4 °F - 69.8 °F 88% 29.88 in 10.0 mi Calm Calm - 0.00 in   Overcast
11:53 PM 72.0 °F - 66.0 °F 81% 29.88 in 10.0 mi ENE 8.1 mph - 0.00 in   Overcast